Location: South Tamworth Observatory
(43.8246°N, 71.3026°W)
Time: 17:26:33
(UTC-04:00)

Amateur Radio Satellites - All Passes

Search period start: 03 September 2015 16:56
Search period end: 04 September 2015 16:56
Location: South Tamworth Observatory, 43.8246°N, 71.3026°W

Satellite Date Start Highest point End Downlink Frequencies (MHz)
Time Altitude Azimuth
Cosmos 2499 03 Sep 17:13:20 17:19:37 22° 281° (W) 17:25:17 435.465 / 435.565
STARS 03 Sep 17:15:07 17:18:59 29° 292° (WNW) 17:22:45 437.465
AIST 2 03 Sep 17:17:36 17:20:54 21° 319° (NW) 17:24:08 435.215
O/OREOS (USA 219) 03 Sep 17:22:22 17:24:07 12° 99° (E) 17:26:06 437.305
Cubesat XI-IV 03 Sep 17:41:02 17:46:07 49° 70° (ENE) 17:51:15 437.490
KKS-1 03 Sep 17:43:46 17:44:59 11° 300° (WNW) 17:46:00 437.445
AO-7 03 Sep 18:03:07 18:07:01 13° 277° (W) 18:10:16 29.400- 29.500
HO-68 03 Sep 18:04:33 18:06:45 12° 47° (NE) 18:09:20 435.675
BRITE-PL 03 Sep 18:05:35 18:07:44 14° 60° (ENE) 18:10:11 437.365/2234.400
MOZHAYETS 4 03 Sep 18:15:56 18:19:47 27° 292° (WNW) 18:23:34
AIST 1 03 Sep 18:17:07 18:20:55 29° 73° (ENE) 18:24:46
GOMX 1 03 Sep 18:19:31 18:21:03 12° 58° (ENE) 18:22:51 467.674
CUTE-I 03 Sep 18:24:49 18:30:08 72° 257° (WSW) 18:35:28 437.470
CUBESAT XI-V 03 Sep 18:40:31 18:45:05 55° 100° (E) 18:49:40 437.345
Cosmos 2491 03 Sep 18:47:06 18:54:36 32° 66° (ENE) 19:02:18 435.465 / 435.565
RS-15 03 Sep 18:51:55 19:01:51 34° 334° (NNW) 19:12:04 29.354- 29.394
O/OREOS (USA 219) 03 Sep 18:58:27 19:03:00 70° 295° (WNW) 19:07:35 437.305
YUBILEINY 03 Sep 19:00:39 19:03:46 13° 74° (ENE) 19:07:34 435.215
Cubesat XI-IV 03 Sep 19:22:17 19:26:31 23° 268° (W) 19:30:39 437.490
PRISM 03 Sep 19:22:37 19:25:55 23° 94° (E) 19:29:16 437.425
CUTE 1.7 + AOD 2 03 Sep 19:24:13 19:27:06 18° 66° (ENE) 19:30:06 437.475
CANX-2 03 Sep 19:37:54 19:41:31 27° 69° (ENE) 19:45:11 2200.000
BRITE-PL 03 Sep 19:41:08 19:45:35 75° 258° (WSW) 19:50:27 437.365/2234.400
STRAND 1 03 Sep 19:45:09 19:50:13 61° 101° (E) 19:55:17 437.568
HO-68 03 Sep 19:46:10 19:53:04 54° 67° (ENE) 20:00:03 435.675
CUBEBUG 2 03 Sep 19:47:24 19:48:25 11° 59° (ENE) 19:49:42 437.445
DOVE 4 03 Sep 19:51:53 19:56:27 52° 72° (ENE) 20:01:21 437.250
SEEDS 03 Sep 19:53:36 19:57:14 29° 69° (ENE) 20:00:55 437.485
GOMX 1 03 Sep 19:53:44 19:58:21 86° 80° (E) 20:03:22 467.674
AIST 1 03 Sep 19:54:54 19:58:29 25° 270° (W) 20:01:59
COMPASS 1 03 Sep 20:10:00 20:13:45 33° 70° (ENE) 20:17:34 437.405
CINEMA 3 03 Sep 20:14:21 20:18:47 40° 70° (ENE) 20:23:25 145.822/145.860
AAUSAT CUBESAT 2 03 Sep 20:17:21 20:21:06 34° 70° (ENE) 20:24:54 437.432
Oscar 11 03 Sep 20:17:35 20:20:22 17° 65° (ENE) 20:23:16 145.826/435.025
CUBESAT XI-V 03 Sep 20:19:00 20:22:09 18° 296° (WNW) 20:25:10 437.345
DELFI C3 03 Sep 20:21:33 20:22:38 11° 63° (ENE) 20:23:56 145.870
O/OREOS (USA 219) 03 Sep 20:42:34 20:43:25 10° 316° (NW) 20:44:02 437.305
Cosmos 2491 03 Sep 20:43:31 20:52:07 62° 268° (W) 21:00:41 435.465 / 435.565
YUBILEINY 03 Sep 20:50:25 20:59:04 68° 93° (E) 21:07:51 435.215
PRISM 03 Sep 20:57:44 21:01:23 30° 291° (WNW) 21:04:59 437.425
CUTE 1.7 + AOD 2 03 Sep 20:58:36 21:02:43 45° 262° (W) 21:06:50 437.475
ZACube-1 03 Sep 21:06:10 21:10:20 36° 70° (ENE) 21:14:34 437.345
BEESAT 3 03 Sep 21:06:41 21:07:18 10° 31° (NNE) 21:08:03 437.485
RS-15 03 Sep 21:09:37 21:18:50 27° 8° (N) 21:28:29 29.354- 29.394
FUNcube-1 03 Sep 21:09:59 21:14:11 38° 70° (ENE) 21:18:28 145.935
CANX-2 03 Sep 21:13:38 21:17:23 28° 265° (W) 21:21:05 2200.000
CUBEBUG 2 03 Sep 21:19:40 21:24:21 82° 77° (ENE) 21:29:09 437.445
UWE-3 03 Sep 21:19:53 21:24:28 65° 75° (ENE) 21:29:09 435.000/436.395/437.385
BEESAT 2 03 Sep 21:23:06 21:24:21 11° 32° (NNE) 21:25:44 435.950
HUMSAT D 03 Sep 21:25:09 21:28:31 23° 67° (ENE) 21:31:56 437.325/437.525
STRAND 1 03 Sep 21:25:25 21:29:01 19° 298° (WNW) 21:32:28 437.568
SEEDS 03 Sep 21:29:22 21:33:00 26° 266° (W) 21:36:35 437.485
DOVE 4 03 Sep 21:31:15 21:34:38 19° 272° (W) 21:38:01 437.250
HO-68 03 Sep 21:34:50 21:41:09 32° 266° (W) 21:47:22 435.675
GOMX 1 03 Sep 21:36:29 21:37:26 10° 277° (W) 21:38:04 467.674
COMPASS 1 03 Sep 21:46:09 21:49:30 22° 267° (W) 21:52:46 437.405
DX 1 03 Sep 21:50:18 21:53:48 25° 67° (ENE) 21:57:24 434.975-435.025
Oscar 11 03 Sep 21:51:58 21:56:12 50° 261° (W) 22:00:27 145.826/435.025
CINEMA 3 03 Sep 21:52:11 21:56:08 25° 268° (W) 22:00:06 145.822/145.860
DELFI C3 03 Sep 21:53:08 21:57:11 72° 258° (WSW) 22:01:13 145.870
AAUSAT CUBESAT 2 03 Sep 21:53:29 21:56:47 22° 267° (W) 22:00:00 437.432
UKube-1 03 Sep 21:57:35 22:01:10 27° 67° (ENE) 22:04:50 .
50 SAT 03 Sep 22:09:14 22:12:32 26° 69° (ENE) 22:15:54 437.505
CUBEBUG 1 03 Sep 22:16:37 22:19:35 19° 65° (ENE) 22:22:40 437.445
AIST 2 03 Sep 22:22:05 22:22:52 10° 30° (NNE) 22:23:47 435.215
ESTCUBE 1 03 Sep 22:24:26 22:28:11 27° 68° (ENE) 22:32:01 437.505/2401.250
AISAT 03 Sep 22:25:06 22:29:09 37° 70° (ENE) 22:33:17 437.250
Cosmos 2504 03 Sep 22:34:34 22:42:12 45° 88° (E) 22:50:17 435.465 / 435.565
BEESAT 3 03 Sep 22:42:10 22:46:09 57° 52° (NE) 22:50:05 437.485
ZACube-1 03 Sep 22:42:59 22:46:46 25° 267° (W) 22:50:31 437.345
AUBIESAT-1 03 Sep 22:43:29 22:44:09 10° 92° (E) 22:45:02 437.475
UNISAT 6 03 Sep 22:43:48 22:47:48 30° 95° (E) 22:51:45 437.425
Cosmos 2491 03 Sep 22:44:53 22:47:21 11° 287° (WNW) 22:49:05 435.465 / 435.565
FUNcube-1 03 Sep 22:46:57 22:50:38 23° 268° (W) 22:54:15 145.935
YUBILEINY 03 Sep 22:49:15 22:56:45 29° 296° (WNW) 23:04:04 435.215
M-CUBED/EXP-1 PRIME 03 Sep 22:50:41 22:53:04 16° 95° (E) 22:55:28 437.505
VELOX 1 03 Sep 22:51:58 22:56:19 69° 74° (ENE) 23:00:45 145.980
UWE-3 03 Sep 22:58:55 23:01:31 14° 273° (W) 23:03:54 435.000/436.395/437.385
BEESAT 2 03 Sep 22:59:11 23:03:15 64° 53° (NE) 23:07:14 435.950
HUMSAT D 03 Sep 23:00:02 23:04:03 36° 263° (W) 23:08:03 437.325/437.525
CUBEBUG 2 03 Sep 23:00:08 23:01:45 11° 275° (W) 23:03:06 437.445
BUGSAT 1 03 Sep 23:07:47 23:09:00 11° 87° (E) 23:10:29 437.445
DANDE 03 Sep 23:08:44 23:11:02 15° 81° (E) 23:13:54 436.750
TIGRISAT 03 Sep 23:10:41 23:15:10 56° 100° (E) 23:19:32 435.000
DUCHIFAT 1 03 Sep 23:13:17 23:16:32 21° 93° (E) 23:19:49 145.980
POLYITAN 1 03 Sep 23:14:32 23:17:57 23° 93° (E) 23:21:26 437.675
POPSAT HIP 1 03 Sep 23:15:45 23:19:11 23° 93° (E) 23:22:40 437.405
RS-15 03 Sep 23:23:47 23:35:01 50° 40° (NE) 23:46:46 29.354- 29.394
DX 1 03 Sep 23:26:01 23:29:56 32° 264° (W) 23:33:51 434.975-435.025
ANTELSAT 03 Sep 23:29:10 23:33:45 90° 285° (WNW) 23:38:12 437.575/2403.000
NANOSAT C BR1 03 Sep 23:31:35 23:35:29 33° 96° (E) 23:39:24 145.865
QB50P2 03 Sep 23:33:14 23:37:14 37° 97° (E) 23:41:13 145.880/145.840
UKube-1 03 Sep 23:33:24 23:37:13 30° 264° (W) 23:41:01 .
SPROUT 03 Sep 23:33:53 23:37:49 36° 70° (ENE) 23:41:49 437.525
50 SAT 03 Sep 23:43:41 23:47:01 25° 266° (W) 23:50:18 437.505
QB50P1 03 Sep 23:46:31 23:50:43 50° 99° (E) 23:54:54 145.935-145.965
CUBEBUG 1 03 Sep 23:51:30 23:55:38 45° 261° (W) 23:59:50 437.445
CUSAT 1 03 Sep 23:56:07 00:00:22 84° 100° (E) 00:06:10 437.405
AIST 2 03 Sep 23:58:18 00:02:26 54° 52° (NE) 00:06:29 435.215
ESTCUBE 1 04 Sep 00:01:00 00:05:00 31° 265° (W) 00:08:57 437.505/2401.250
AISAT 04 Sep 00:02:24 00:05:52 22° 267° (W) 00:09:17 437.250
SWISSCUBE 04 Sep 00:04:25 00:05:33 11° 59° (ENE) 00:06:56 437.505
PCSat 04 Sep 00:08:05 00:11:21 17° 106° (ESE) 00:14:51 145.827
SO-50 04 Sep 00:14:00 00:18:35 47° 118° (ESE) 00:23:19 436.795
AUBIESAT-1 04 Sep 00:15:38 00:19:27 56° 292° (WNW) 00:22:57 437.475
UNISAT 6 04 Sep 00:20:36 00:24:31 28° 292° (WNW) 00:28:17 437.425
BEESAT 3 04 Sep 00:21:23 00:23:39 14° 249° (WSW) 00:25:46 437.485
TISAT 1 04 Sep 00:24:06 00:28:18 74° 74° (ENE) 00:32:33 437.305
M-CUBED/EXP-1 PRIME 04 Sep 00:24:29 00:28:10 37° 295° (WNW) 00:31:32 437.505
Cosmos 2504 04 Sep 00:26:42 00:34:32 43° 289° (WNW) 00:42:35 435.465 / 435.565
VELOX 1 04 Sep 00:31:38 00:33:26 12° 272° (W) 00:35:00 145.980
BEESAT 2 04 Sep 00:38:52 00:40:49 13° 250° (WSW) 00:42:34 435.950
BUGSAT 1 04 Sep 00:40:45 00:45:01 69° 285° (WNW) 00:49:15 437.445
ITUPSAT 1 04 Sep 00:41:50 00:45:27 22° 65° (ENE) 00:49:10 437.325
DUCHIFAT 1 04 Sep 00:48:29 00:52:27 36° 290° (WNW) 00:56:21 145.980
TIGRISAT 04 Sep 00:48:32 00:51:29 17° 297° (WNW) 00:54:15 435.000
DANDE 04 Sep 00:49:39 00:53:23 45° 288° (WNW) 00:58:24 436.750
POLYITAN 1 04 Sep 00:50:01 00:53:56 33° 290° (WNW) 00:57:46 437.675
POPSAT HIP 1 04 Sep 00:51:13 00:55:08 33° 290° (WNW) 00:58:58 437.405
Oscar 19 04 Sep 01:05:51 01:09:01 17° 89° (E) 01:12:22 437.125/150
NANOSAT C BR1 04 Sep 01:07:42 01:11:10 24° 293° (WNW) 01:14:32 145.865
ANTELSAT 04 Sep 01:08:32 01:09:51 11° 300° (WNW) 01:10:55 437.575/2403.000
QB50P2 04 Sep 01:09:34 01:12:55 22° 294° (WNW) 01:16:09 145.880/145.840
SPROUT 04 Sep 01:10:40 01:14:02 21° 268° (W) 01:17:18 437.525
BEESAT 04 Sep 01:11:48 01:16:15 42° 70° (ENE) 01:20:47 436.000
QB50P1 04 Sep 01:23:23 01:26:13 17° 296° (WNW) 01:28:55 145.935-145.965
KKS-1 04 Sep 01:30:38 01:32:05 12° 60° (ENE) 01:33:45 437.445
VERMONT LUNAR 04 Sep 01:34:08 01:34:38 10° 152° (SSE) 01:35:13 437.305
RS-15 04 Sep 01:36:28 01:48:05 62° 244° (WSW) 01:59:58 29.354- 29.394
AIST 2 04 Sep 01:37:57 01:40:36 16° 248° (WSW) 01:43:06 435.215
SWISSCUBE 04 Sep 01:37:57 01:42:42 83° 75° (ENE) 01:47:29 437.505
GONETS M04 04 Sep 01:39:43 01:47:04 33° 85° (E) 01:54:39
CUSAT 1 04 Sep 01:41:53 01:44:20 13° 308° (NW) 01:46:49 437.405
PCSat 04 Sep 01:48:49 01:54:14 73° 302° (WNW) 01:59:41 145.827
SO-50 04 Sep 01:55:06 01:59:21 29° 318° (NW) 02:03:38 436.795
TISAT 1 04 Sep 02:04:02 02:04:40 10° 273° (W) 02:05:02 437.305
Cosmos 2499 04 Sep 02:09:08 02:11:57 12° 74° (ENE) 02:15:28 435.465 / 435.565
ITAMSAT 1 04 Sep 02:12:11 02:15:27 17° 89° (E) 02:18:56 435.822/435.867
Gurwin Techsat 1B 04 Sep 02:13:48 02:17:54 23° 92° (E) 02:22:07 435.225
ITUPSAT 1 04 Sep 02:18:31 02:23:06 44° 262° (W) 02:27:40 437.325
STARS 04 Sep 02:36:48 02:40:40 31° 68° (ENE) 02:44:37 437.465
Oscar 19 04 Sep 02:43:45 02:48:55 65° 288° (WNW) 02:54:03 437.125/150
BEESAT 04 Sep 02:50:34 02:54:19 22° 268° (W) 02:57:58 436.000
JAS-2 04 Sep 02:52:16 02:57:59 29° 89° (E) 03:03:16 435.910
KKS-1 04 Sep 03:03:39 03:08:07 84° 257° (WSW) 03:12:37 437.445
VERMONT LUNAR 04 Sep 03:07:49 03:10:31 31° 167° (SSE) 03:13:13 437.305
SWISSCUBE 04 Sep 03:19:50 03:21:17 11° 274° (W) 03:22:26 437.505
O/OREOS (USA 219) 04 Sep 03:28:10 03:32:17 32° 57° (ENE) 03:36:25 437.305
GONETS M04 04 Sep 03:35:03 03:43:33 57° 285° (WNW) 03:52:08
PCSat 04 Sep 03:35:20 03:38:41 16° 325° (NW) 03:41:55 145.827
MOZHAYETS 4 04 Sep 03:41:40 03:45:52 36° 70° (ENE) 03:50:07
ITAMSAT 1 04 Sep 03:50:20 03:55:28 63° 288° (WNW) 04:00:35 435.822/435.867
RS-15 04 Sep 03:52:59 03:58:32 14° 263° (W) 04:02:59 29.354- 29.394
Gurwin Techsat 1B 04 Sep 03:53:03 03:58:11 49° 290° (WNW) 04:03:16 435.225
Cosmos 2499 04 Sep 03:55:06 04:03:29 64° 93° (E) 04:12:16 435.465 / 435.565
AO-7 04 Sep 04:04:26 04:11:57 38° 97° (E) 04:19:33 29.400- 29.500
HORYU 2 04 Sep 04:05:59 04:09:42 26° 94° (E) 04:13:27 437.375
STARS 04 Sep 04:13:21 04:17:08 27° 266° (W) 04:20:53 437.465
JAS-2 04 Sep 04:36:47 04:43:30 51° 292° (WNW) 04:49:24 435.910
VERMONT LUNAR 04 Sep 04:43:47 04:46:39 43° 183° (S) 04:49:29 437.305
PHONESAT 2.4 04 Sep 04:58:19 05:01:16 28° 162° (SSE) 05:04:15 2401.200-2431.200
O/OREOS (USA 219) 04 Sep 05:07:40 05:11:40 29° 255° (WSW) 05:15:34 437.305
MOZHAYETS 4 04 Sep 05:19:26 05:23:12 24° 267° (W) 05:26:54
STRAND 1 04 Sep 05:26:20 05:28:52 14° 60° (ENE) 05:31:37 437.568
GONETS M04 04 Sep 05:39:48 05:43:01 12° 311° (NW) 05:45:39
HORYU 2 04 Sep 05:42:23 05:46:23 32° 291° (WNW) 05:50:17 437.375
CUBESAT XI-V 04 Sep 05:45:03 05:49:34 61° 74° (ENE) 05:54:07 437.345
Cosmos 2499 04 Sep 05:49:44 05:57:21 32° 295° (WNW) 06:05:00 435.465 / 435.565
AO-7 04 Sep 05:57:02 06:05:02 53° 296° (WNW) 06:12:56 29.400- 29.500
Cubesat XI-IV 04 Sep 05:57:57 06:01:16 17° 89° (E) 06:04:49 437.490
PRISM 04 Sep 06:14:11 06:17:15 21° 66° (ENE) 06:20:25 437.425
VERMONT LUNAR 04 Sep 06:20:17 06:22:42 23° 199° (SSW) 06:25:07 437.305
JAS-2 04 Sep 06:25:34 06:26:55 10° 313° (NW) 06:27:52 435.910
PHONESAT 2.4 04 Sep 06:35:32 06:38:50 48° 179° (S) 06:42:08 2401.200-2431.200
CUTE-I 04 Sep 06:40:37 06:45:38 41° 97° (E) 06:50:40 437.470
AIST 1 04 Sep 06:49:17 06:51:49 16° 87° (E) 06:54:30
YUBILEINY 04 Sep 06:59:11 07:07:06 36° 68° (ENE) 07:15:06 435.215
STRAND 1 04 Sep 07:02:22 07:07:28 83° 258° (WSW) 07:12:36 437.568
SO-50 04 Sep 07:04:49 07:07:30 15° 30° (NNE) 07:10:18 436.795
CUBESAT XI-V 04 Sep 07:24:56 07:27:30 14° 272° (W) 07:29:52 437.345
Cubesat XI-IV 04 Sep 07:36:38 07:41:55 65° 288° (WNW) 07:47:12 437.490
BRITE-PL 04 Sep 07:43:53 07:49:01 37° 95° (E) 07:54:17 437.365/2234.400
PRISM 04 Sep 07:48:47 07:52:31 34° 263° (W) 07:56:15 437.425
Cosmos 2491 04 Sep 07:50:39 07:58:02 34° 85° (E) 08:05:37 435.465 / 435.565
DOVE 4 04 Sep 07:50:49 07:53:48 16° 86° (E) 07:57:00 437.250
AO-7 04 Sep 07:52:15 07:56:07 14° 318° (NW) 07:59:35 29.400- 29.500
GOMX 1 04 Sep 07:54:17 07:58:54 28° 92° (E) 08:03:35 467.674
ISS 04 Sep 08:03:20 08:06:34 69° 144° (SE) 08:09:49 145.825
PHONESAT 2.4 04 Sep 08:13:19 08:16:25 33° 195° (SSW) 08:19:31 2401.200-2431.200
Cosmos 2504 04 Sep 08:20:49 08:25:35 16° 55° (NE) 08:30:37 435.465 / 435.565
CUTE-I 04 Sep 08:21:02 08:25:34 28° 295° (WNW) 08:30:01 437.470
AIST 1 04 Sep 08:25:04 08:29:07 43° 283° (WNW) 08:33:13
CUTE 1.7 + AOD 2 04 Sep 08:42:36 08:46:11 27° 94° (E) 08:49:48 437.475
SO-50 04 Sep 08:44:10 08:49:06 62° 52° (NE) 08:53:55 436.795
CUSAT 1 04 Sep 08:48:07 08:53:15 19° 58° (ENE) 08:58:55 437.405
PCSat 04 Sep 08:52:41 08:56:55 23° 42° (NE) 09:01:14 145.827
ANTELSAT 04 Sep 08:55:40 08:57:22 12° 60° (ENE) 08:59:18 437.575/2403.000
YUBILEINY 04 Sep 08:55:48 09:04:22 54° 269° (W) 09:12:46 435.215
CANX-2 04 Sep 08:56:55 09:00:57 43° 98° (E) 09:04:59 2200.000
HO-68 04 Sep 08:59:43 09:06:39 49° 99° (E) 09:13:35 435.675
UWE-3 04 Sep 09:10:46 09:12:26 12° 86° (E) 09:14:20 435.000/436.395/437.385
CUBEBUG 2 04 Sep 09:10:55 09:13:46 16° 88° (E) 09:16:43 437.445
SEEDS 04 Sep 09:11:32 09:15:33 44° 98° (E) 09:19:33 437.485
Cubesat XI-IV 04 Sep 09:20:36 09:21:08 10° 305° (NW) 09:21:23 437.490
BRITE-PL 04 Sep 09:22:26 09:27:28 35° 291° (WNW) 09:32:33 437.365/2234.400
DOVE 4 04 Sep 09:26:51 09:32:11 73° 286° (WNW) 09:37:24 437.250
COMPASS 1 04 Sep 09:27:00 09:31:04 51° 99° (E) 09:35:05 437.405
AUBIESAT-1 04 Sep 09:29:28 09:33:15 25° 62° (ENE) 09:37:01 437.475
GOMX 1 04 Sep 09:31:57 09:37:09 44° 290° (WNW) 09:42:19 467.674
DELFI C3 04 Sep 09:32:12 09:34:07 13° 89° (E) 09:36:12 145.870
AAUSAT CUBESAT 2 04 Sep 09:33:47 09:37:50 51° 99° (E) 09:41:52 437.432
M-CUBED/EXP-1 PRIME 04 Sep 09:38:00 09:42:19 35° 64° (ENE) 09:46:33 437.505
Oscar 11 04 Sep 09:38:13 09:41:50 26° 94° (E) 09:45:28 145.826/435.025
ISS 04 Sep 09:40:20 09:43:12 27° 344° (NNW) 09:46:05 145.825
DANDE 04 Sep 09:42:47 09:49:25 31° 66° (ENE) 09:56:48 436.750
UNISAT 6 04 Sep 09:43:40 09:47:52 33° 69° (ENE) 09:52:07 437.425
CINEMA 3 04 Sep 09:44:38 09:49:40 79° 102° (ESE) 09:54:31 145.822/145.860
Cosmos 2491 04 Sep 09:46:01 09:54:34 56° 285° (WNW) 10:03:05 435.465 / 435.565
PHONESAT 2.4 04 Sep 09:52:32 09:53:43 11° 210° (SSW) 09:54:50 2401.200-2431.200
BUGSAT 1 04 Sep 10:00:41 10:00:58 10° 61° (ENE) 10:01:28 437.445
DUCHIFAT 1 04 Sep 10:07:10 10:10:12 20° 66° (ENE) 10:13:20 145.980
POLYITAN 1 04 Sep 10:08:59 10:12:14 22° 66° (ENE) 10:15:36 437.675
POPSAT HIP 1 04 Sep 10:10:01 10:13:15 22° 66° (ENE) 10:16:36 437.405
TIGRISAT 04 Sep 10:10:08 10:14:44 58° 74° (ENE) 10:19:24 435.000
Cosmos 2504 04 Sep 10:11:11 10:19:41 74° 79° (E) 10:27:37 435.465 / 435.565
CUTE 1.7 + AOD 2 04 Sep 10:18:26 10:22:04 27° 291° (WNW) 10:25:37 437.475
NANOSAT C BR1 04 Sep 10:25:21 10:29:03 30° 69° (ENE) 10:32:50 145.865
SO-50 04 Sep 10:25:45 10:29:13 19° 249° (WSW) 10:32:27 436.795
QB50P2 04 Sep 10:27:21 10:31:10 33° 70° (ENE) 10:35:04 145.880/145.840
ANTELSAT 04 Sep 10:28:47 10:33:30 88° 265° (W) 10:38:16 437.575/2403.000
CUSAT 1 04 Sep 10:29:07 10:37:07 76° 78° (ENE) 10:45:20 437.405
ZACube-1 04 Sep 10:29:22 10:33:49 61° 100° (E) 10:38:08 437.345
FUNcube-1 04 Sep 10:32:57 10:37:24 65° 101° (E) 10:41:43 145.935
CANX-2 04 Sep 10:33:37 10:36:36 18° 294° (WNW) 10:39:26 2200.000
PCSat 04 Sep 10:35:28 10:40:53 69° 243° (WSW) 10:46:16 145.827
QB50P1 04 Sep 10:40:19 10:44:21 44° 72° (ENE) 10:48:28 145.935-145.965
HUMSAT D 04 Sep 10:42:34 10:46:22 32° 96° (E) 10:50:08 437.325/437.525
VELOX 1 04 Sep 10:43:06 10:44:40 12° 87° (E) 10:46:29 145.980
UWE-3 04 Sep 10:45:00 10:49:35 70° 286° (WNW) 10:53:59 435.000/436.395/437.385
CUBEBUG 2 04 Sep 10:46:17 10:50:52 54° 287° (WNW) 10:55:16 437.445
HO-68 04 Sep 10:47:46 10:54:14 36° 298° (WNW) 11:00:36 435.675
SEEDS 04 Sep 10:48:11 10:51:01 18° 295° (WNW) 10:53:45 437.485
AUBIESAT-1 04 Sep 11:03:17 11:07:46 41° 257° (WSW) 11:12:06 437.475
COMPASS 1 04 Sep 11:03:51 11:06:20 15° 296° (WNW) 11:08:42 437.405
DELFI C3 04 Sep 11:05:39 11:09:32 50° 286° (WNW) 11:13:21 145.870
DOVE 4 04 Sep 11:07:15 11:09:04 11° 302° (WNW) 11:10:36 437.250
AAUSAT CUBESAT 2 04 Sep 11:10:35 11:13:03 15° 296° (WNW) 11:15:23 437.432
DX 1 04 Sep 11:12:30 11:16:35 37° 98° (E) 11:20:40 434.975-435.025
M-CUBED/EXP-1 PRIME 04 Sep 11:12:52 11:17:05 29° 260° (W) 11:21:08 437.505
Oscar 11 04 Sep 11:14:13 11:18:01 30° 291° (WNW) 11:21:44 145.826/435.025
50 SAT 04 Sep 11:16:48 11:20:14 30° 96° (E) 11:23:39 437.505
ISS 04 Sep 11:17:48 11:20:20 20° 4° (N) 11:22:52 145.825
UKube-1 04 Sep 11:18:53 11:22:57 38° 98° (E) 11:27:02 .
UNISAT 6 04 Sep 11:20:35 11:24:39 28° 266° (W) 11:28:41 437.425
CINEMA 3 04 Sep 11:23:29 11:26:13 14° 299° (WNW) 11:28:43 145.822/145.860
DANDE 04 Sep 11:25:17 11:33:05 69° 264° (W) 11:41:32 436.750
BUGSAT 1 04 Sep 11:31:43 11:35:49 84° 257° (WSW) 11:40:00 437.445
CUBEBUG 1 04 Sep 11:38:55 11:42:47 29° 95° (E) 11:46:41 437.445
DUCHIFAT 1 04 Sep 11:41:42 11:45:44 41° 262° (W) 11:49:47 145.980
POLYITAN 1 04 Sep 11:43:57 11:47:56 37° 263° (W) 11:51:56 437.675
POPSAT HIP 1 04 Sep 11:44:57 11:48:55 36° 263° (W) 11:52:54 437.405
GONETS M04 04 Sep 11:47:58 11:53:25 18° 56° (NE) 11:59:18
TIGRISAT 04 Sep 11:48:56 11:51:54 16° 271° (W) 11:54:43 435.000
AISAT 04 Sep 11:50:15 11:54:43 63° 101° (E) 11:59:11 437.250
Cosmos 2491 04 Sep 11:50:53 11:54:02 12° 311° (NW) 11:56:33 435.465 / 435.565
ESTCUBE 1 04 Sep 11:51:35 11:55:57 48° 99° (E) 12:00:20 437.505/2401.250
NANOSAT C BR1 04 Sep 12:01:20 12:04:54 25° 266° (W) 12:08:26 145.865
QB50P2 04 Sep 12:03:41 12:07:08 23° 267° (W) 12:10:32 145.880/145.840
Cosmos 2504 04 Sep 12:04:38 12:11:04 24° 280° (W) 12:16:56 435.465 / 435.565
ZACube-1 04 Sep 12:07:04 12:09:42 15° 297° (WNW) 12:12:08 437.345
TISAT 1 04 Sep 12:09:50 12:10:37 11° 87° (E) 12:11:41 437.305
FUNcube-1 04 Sep 12:10:45 12:13:12 14° 298° (WNW) 12:15:28 145.935
CUSAT 1 04 Sep 12:12:42 12:19:07 26° 274° (W) 12:25:21 437.405
VELOX 1 04 Sep 12:17:19 12:21:47 71° 286° (WNW) 12:26:14 145.980
QB50P1 04 Sep 12:17:34 12:20:29 17° 269° (W) 12:23:17 145.935-145.965
HUMSAT D 04 Sep 12:18:33 12:21:58 23° 293° (WNW) 12:25:15 437.325/437.525
Oscar 19 04 Sep 12:23:37 12:27:56 28° 66° (ENE) 12:32:23 437.125/150
DX 1 04 Sep 12:49:09 12:52:38 23° 294° (WNW) 12:56:02 434.975-435.025
50 SAT 04 Sep 12:51:38 12:54:36 21° 292° (WNW) 12:57:26 437.505
ISS 04 Sep 12:54:12 12:57:20 42° 24° (NNE) 13:00:26 145.825
SPROUT 04 Sep 12:54:35 12:58:54 60° 100° (E) 13:03:11 437.525
UKube-1 04 Sep 12:55:31 12:58:52 22° 294° (WNW) 13:02:07 .
JAS-2 04 Sep 13:05:34 13:10:51 21° 56° (ENE) 13:16:21 435.910
DANDE 04 Sep 13:10:59 13:15:19 15° 279° (W) 13:19:15 436.750
CUBEBUG 1 04 Sep 13:15:16 13:19:05 28° 292° (WNW) 13:22:51 437.445
AO-7 04 Sep 13:17:20 13:21:24 15° 44° (NE) 13:25:51 29.400- 29.500
AISAT 04 Sep 13:28:13 13:30:50 15° 298° (WNW) 13:33:18 437.250
ESTCUBE 1 04 Sep 13:29:19 13:32:31 19° 295° (WNW) 13:35:35 437.505/2401.250
ITAMSAT 1 04 Sep 13:31:07 13:35:34 31° 66° (ENE) 13:40:07 435.822/435.867
Gurwin Techsat 1B 04 Sep 13:35:57 13:40:53 41° 69° (ENE) 13:45:52 435.225
SWISSCUBE 04 Sep 13:37:48 13:41:07 19° 91° (E) 13:44:34 437.505
TISAT 1 04 Sep 13:42:41 13:46:58 73° 285° (WNW) 13:51:13 437.305
GONETS M04 04 Sep 13:43:11 13:52:03 80° 80° (E) 14:00:54
Cosmos 2499 04 Sep 13:45:53 13:52:40 26° 62° (ENE) 13:59:20 435.465 / 435.565
RS-15 04 Sep 13:54:15 14:00:46 19° 100° (E) 14:08:07 29.354- 29.394
Oscar 19 04 Sep 14:02:19 14:07:10 39° 263° (W) 14:12:01 437.125/150
BEESAT 3 04 Sep 14:12:52 14:16:54 69° 122° (ESE) 14:20:59 437.485
ITUPSAT 1 04 Sep 14:17:32 14:22:03 41° 98° (E) 14:26:34 437.325
ISS 04 Sep 14:30:46 14:33:40 30° 221° (SW) 14:36:33 145.825
BEESAT 2 04 Sep 14:31:00 14:35:05 80° 123° (ESE) 14:39:14 435.950
SPROUT 04 Sep 14:32:02 14:34:32 15° 297° (WNW) 14:36:53 437.525
JAS-2 04 Sep 14:47:07 14:54:56 84° 74° (ENE) 15:02:47 435.910
BEESAT 04 Sep 14:47:57 14:52:44 85° 104° (ESE) 14:57:29 436.000
KKS-1 04 Sep 14:54:27 14:57:22 17° 91° (E) 15:00:24 437.445
AO-7 04 Sep 15:04:33 15:12:38 58° 65° (ENE) 15:20:46 29.400- 29.500
HORYU 2 04 Sep 15:05:25 15:09:16 29° 68° (ENE) 15:13:12 437.375
ITAMSAT 1 04 Sep 15:10:16 15:15:01 35° 264° (W) 15:19:44 435.822/435.867
SWISSCUBE 04 Sep 15:14:41 15:19:17 49° 289° (WNW) 15:23:51 437.505
Gurwin Techsat 1B 04 Sep 15:16:30 15:21:01 27° 267° (W) 15:25:29 435.225
AIST 2 04 Sep 15:35:10 15:39:23 75° 124° (ESE) 15:43:39 435.215
Cosmos 2499 04 Sep 15:38:17 15:46:54 75° 265° (W) 15:54:51 435.465 / 435.565
GONETS M04 04 Sep 15:41:27 15:48:02 23° 279° (W) 15:54:14
BEESAT 3 04 Sep 15:52:32 15:55:17 17° 322° (NW) 15:57:58 437.485
ITUPSAT 1 04 Sep 15:55:55 15:59:43 24° 295° (WNW) 16:03:25 437.325
RS-15 04 Sep 16:00:32 16:11:27 79° 120° (ESE) 16:22:52 29.354- 29.394
STARS 04 Sep 16:00:48 16:05:08 49° 100° (E) 16:09:27 437.465
BEESAT 2 04 Sep 16:11:07 16:13:41 16° 323° (NW) 16:16:10 435.950
BEESAT 04 Sep 16:27:49 16:29:57 13° 300° (WNW) 16:31:53 436.000
CUTE-I 04 Sep 16:28:05 16:29:47 12° 57° (ENE) 16:31:46 437.470
KKS-1 04 Sep 16:29:57 16:34:19 49° 288° (WNW) 16:38:38 437.445
JAS-2 04 Sep 16:34:57 16:40:51 22° 274° (W) 16:46:28 435.910
HORYU 2 04 Sep 16:41:55 16:45:52 29° 265° (W) 16:49:47 437.375
